Weather History for Nogales, AZ

Change the Weather History Date:

Monday, May 13, 2013

  Actual Average (KTUS) Record (KTUS)
Temperature  
Mean Temperature 74 °F 75 °F  
Max Temperature 89 °F 91 °F 105 °F (1988)
Min Temperature 59 °F 60 °F 39 °F (1933)
Degree Days  
Heating Degree Days 0 0  
Month to date heating degree days 3  
Since 1 July heating degree days 1509  
Cooling Degree Days 9 10  
Month to date cooling degree days 112  
Year to date cooling degree days 266  
Growing Degree Days 24 (Base 50)    
Moisture  
Dew Point 21 °F    
Average Humidity 15    
Maximum Humidity 29    
Minimum Humidity 5    
Precipitation  
Precipitation 0.00 in 0.01 in 0.08 in (1977)
Month to date precipitation 0.09  
Year to date precipitation 2.93  
Sea Level Pressure  
Sea Level Pressure 29.94 in    
Wind  
Wind Speed 8 mph (ENE)    
Max Wind Speed 17 mph    
Max Gust Speed 26 mph    
Visibility 10 miles    
Events      
T = Trace of Precipitation, MM = Missing Value Source: NWS Daily Summary

Daily Weather History Graph

Daily Weather History Graph

Search for Another Location

Airport:

Trip Planner

Search our weather history database for the weather conditions in past years. The results will help you decide how hot, cold, wet, or windy it might be!

Date:

Astronomy

May. 13, 2013 Rise Set
Actual Time 5:28 AM MST 7:11 PM MST
Civil Twilight 5:01 AM MST 7:38 PM MST
Nautical Twilight 4:29 AM MST 8:10 PM MST
Astronomical Twilight 3:56 AM MST 8:43 PM MST
Moon 8:18 AM MST (5/13) 10:22 PM MST (5/13)
Length of Visible Light 14h 36m
Length of Day
13h 43m
Waxing Crescent, 13% of the Moon is Illuminated
May 13
Waxing Crescent
May 17
First Quarter
May 24
Full
May 31
Last Quarter
Jun 8
New

Hourly Weather History & Observations

Time (MST) Temp. Dew Point Humidity Pressure Visibility Wind Dir Wind Speed Gust Speed Precip Events Conditions
12:54 AM 68.0 °F 26.1 °F 21% 29.95 in 10.0 mi WNW 3.5 mph - N/A   Clear
1:54 AM 64.0 °F 26.1 °F 24% 29.95 in 10.0 mi NNE 3.5 mph - N/A   Clear
2:54 AM 61.0 °F 26.1 °F 26% 29.95 in 10.0 mi NNE 9.2 mph - N/A   Clear
3:54 AM 60.1 °F 27.0 °F 28% 29.95 in 10.0 mi NE 6.9 mph - N/A   Clear
4:54 AM 59.0 °F 27.0 °F 29% 29.96 in 10.0 mi NNE 5.8 mph - N/A   Clear
5:54 AM 60.1 °F 27.0 °F 28% 29.99 in 10.0 mi NNE 6.9 mph - N/A   Clear
6:54 AM 66.9 °F 28.9 °F 24% 29.99 in 10.0 mi NNE 5.8 mph - N/A   Clear
7:54 AM 73.0 °F 28.9 °F 20% 30.00 in 10.0 mi Variable 3.5 mph - N/A   Clear
8:54 AM 77.0 °F 28.9 °F 17% 29.98 in 10.0 mi Variable 6.9 mph - N/A   Clear
9:54 AM 82.0 °F 28.0 °F 14% 29.97 in 10.0 mi SE 11.5 mph 23.0 mph N/A   Clear
10:54 AM 84.0 °F 25.0 °F 12% 29.96 in 10.0 mi East 15.0 mph 26.5 mph N/A   Clear
11:54 AM 84.9 °F 23.0 °F 10% 29.95 in 10.0 mi East 15.0 mph 25.3 mph N/A   Clear
1:36 PM 88.0 °F 18.0 °F 8% 30.11 in 10.0 mi NE 17.3 mph 25.3 mph N/A   Clear
1:54 PM 89.1 °F 17.1 °F 7% 29.90 in 10.0 mi NNE 11.5 mph 25.3 mph N/A   Clear
2:54 PM 88.0 °F 17.1 °F 7% 29.88 in 10.0 mi East 9.2 mph 21.9 mph N/A   Clear
3:54 PM 88.0 °F 14.0 °F 6% 29.87 in 10.0 mi NNE 15.0 mph 25.3 mph N/A   Clear
4:54 PM 87.8 °F 12.2 °F 6% 30.04 in 10.0 mi NE 17.3 mph 24.2 mph N/A   Clear
5:54 PM 86.0 °F 9.0 °F 5% 29.86 in 10.0 mi East 15.0 mph 24.2 mph N/A   Clear
6:54 PM 82.0 °F 12.0 °F 7% 29.86 in 10.0 mi East 8.1 mph - N/A   Clear
7:54 PM 79.0 °F 12.0 °F 8% 29.87 in 10.0 mi ESE 9.2 mph - N/A   Clear
8:54 PM 78.1 °F 14.0 °F 9% 29.87 in 10.0 mi ESE 10.4 mph - N/A   Clear
9:54 PM 71.1 °F 15.1 °F 12% 29.90 in 10.0 mi SSE 6.9 mph - N/A   Clear
10:54 PM 70.0 °F 18.0 °F 14% 29.91 in 10.0 mi SSE 4.6 mph - N/A   Clear
11:54 PM 66.9 °F 24.1 °F 20% 29.92 in 10.0 mi SSE 3.5 mph - N/A   Clear